OBJECT BC, 68466

Orbit data source: Space-Track

You're viewing an Uncataloged Satellite

Recently launched and/or uncataloged satellites may have evolving metadata. Metadata may include but not limited to: Owner, Maufacturer, Bus, Motor, and Mission.

OBJECT BC, 68466 is a satellite in SSO that was launched on Mon, 30 Mar 2026 UTC via an FALCON 9 launch vehicle from the Air Force Western Test Range (AFWTR). Unknown objects in Earth's orbit typically refer to objects detected orbiting the Earth but have not yet been identified or cataloged. These objects could be anything from previously untracked satellites, spent rocket stages, debris from satellite collisions, or even natural meteoroids temporarily captured by Earth's gravity.

Loading next visibility...
Identifier
68466, 2026-067BC
Orbit
SSO
Country
Flag of TBDTBD
Related business
None
Manufacturer
Unknown
Mission
Operational spacecraft
Bus & Motor
Unknown
Mass
Unknown
Launch date (UTC)
2026-03-30 (1 month ago)
Launch vehicle
FALCON 9
Launch site
Air Force Western Test Range (AFWTR)
Object type
Unknown
Shape & HBR
Unknown shape, 1.1 m
Radar Cross Section
RCS unknown

Expand to show TLE details & history
Last TLE update: 15 hours ago

TLE from 15 hours ago
0 OBJECT BC
1 68466U 26067BC  26127.10458221  .00007747  00000-0  39442-3 0  9992
2 68466  97.4469  86.0852 0005090 206.0241 154.0737 15.17070064  5552
Epoch: 2026-05-07T02:30Z
TLE epoch observation values (Epoch: 2026-05-07T02:30:35.902Z)
Latitude
-0.00008°
Longitude
-176.51989°
Altitude
520.943 km
Speed
7.601 km/s
True Right ascension
05h 44m 20s
True Declination
0° 00' 00"
Sunlit
Object was in daylight at epoch
Visualization orbit readout
Latitude
Unknown
Longitude
Unknown
Altitude
Unknown
Speed
Unknown
Apparent Right ascension
Unknown
Apparent Declination
Unknown
Sunlit
N/A
Visualization observer readout
Local Sidereal Time
01:03:26
Azimuth
Unknown
Elevation
Unknown
Doppler factor
Unknown
Orbital elements
Apogee altitude
515.18 km
Perigee altitude
508.166 km
Semi-major axis
6,889.81 km
Eccentricity
0.00051
Inclination
97.4469°
RAAN
86.0852°
Arg. of periapsis
206.0241°
True anomaly
154.09919°
Mean anomaly
154.0737°
Eccentric anomaly
154.08644°
Mean motion
3.79518 °/min
Orbital period
94.86 mins
BSTAR
0.00039442
Loading maneuver chart data...
Computing Atmospheric mass density...
Loading historical data...
Loading historical data...
Loading historical data...
Loading historical data...
Loading historical data...
Loading historical data...
Loading historical data...

Documentation

Showing up to 5 results
|